Location: Unspecified
(0.0000°N, 0.0000°E)
Time: 03:42:25
(UTC+00:00)

Vanguard 2 - Pass Details

Date: 08 October 2022
Orbit: 553 x 2923 km, 32.9° (Epoch: 28 November)

Event Time Altitude Azimuth Distance (km) Brightness Sun altitude
Rises 21:11:03 0° 285° (WNW) 6,771 12.9 -50.5°
Reaches altitude 10° 21:16:17 10° 278° (W) 5,668 12.3 -51.8°
Maximum altitude 21:31:00 37° 218° (SW) 3,263 10.7 -55.4°
Enters shadow 21:31:59 37° 210° (SSW) 3,216 10.6 -55.6°
